Year,Month,Day,Hour,Minute,Value (Times are PST for temperature in C)
2014,08,16,00,00,18.50
2014,08,16,00,01,18.50
2014,08,16,00,02,18.50
2014,08,16,00,03,18.50
2014,08,16,00,04,18.50
2014,08,16,00,05,18.50
2014,08,16,00,06,18.50
2014,08,16,00,07,18.50
2014,08,16,00,08,18.50
2014,08,16,00,09,18.50
2014,08,16,00,10,18.50
2014,08,16,00,11,18.50
2014,08,16,00,12,18.50
2014,08,16,00,13,18.50
2014,08,16,00,14,18.50
2014,08,16,00,15,18.50
2014,08,16,00,16,18.50
2014,08,16,00,17,18.50
2014,08,16,00,18,18.50
2014,08,16,00,19,18.50
2014,08,16,00,20,18.40
2014,08,16,00,21,18.40
2014,08,16,00,22,18.40
2014,08,16,00,23,18.40
2014,08,16,00,24,18.40
2014,08,16,00,25,18.40
2014,08,16,00,26,18.40
2014,08,16,00,27,18.40
2014,08,16,00,28,18.40
2014,08,16,00,29,18.40
2014,08,16,00,30,18.40
2014,08,16,00,31,18.40
2014,08,16,00,32,18.40
2014,08,16,00,33,18.40
2014,08,16,00,34,18.40
2014,08,16,00,35,18.40
2014,08,16,00,36,18.40
2014,08,16,00,37,18.40
2014,08,16,00,38,18.30
2014,08,16,00,39,18.30
2014,08,16,00,40,18.30
2014,08,16,00,41,18.30
2014,08,16,00,42,18.30
2014,08,16,00,43,18.30
2014,08,16,00,44,18.30
2014,08,16,00,45,18.30
2014,08,16,00,46,18.30
2014,08,16,00,47,18.30
2014,08,16,00,48,18.30
2014,08,16,00,49,18.20
2014,08,16,00,50,18.20
2014,08,16,00,51,18.20
2014,08,16,00,52,18.20
2014,08,16,00,53,18.20
2014,08,16,00,54,18.20
2014,08,16,00,55,18.20
2014,08,16,00,56,18.20
2014,08,16,00,57,18.20
2014,08,16,00,58,18.20
2014,08,16,00,59,18.20
2014,08,16,01,00,18.20
2014,08,16,01,01,18.20
2014,08,16,01,02,18.20
2014,08,16,01,03,18.20
2014,08,16,01,04,18.20
2014,08,16,01,05,18.20
2014,08,16,01,06,18.20
2014,08,16,01,07,18.20
2014,08,16,01,08,18.20
2014,08,16,01,09,18.20
2014,08,16,01,10,18.20
2014,08,16,01,11,18.20
2014,08,16,01,12,18.20
2014,08,16,01,13,18.20
2014,08,16,01,14,18.20
2014,08,16,01,15,18.20
2014,08,16,01,16,18.20
2014,08,16,01,17,18.20
2014,08,16,01,18,18.20
2014,08,16,01,19,18.20
2014,08,16,01,20,18.20
2014,08,16,01,21,18.20
2014,08,16,01,22,18.20
2014,08,16,01,23,18.20
2014,08,16,01,24,18.20
2014,08,16,01,25,18.20
2014,08,16,01,26,18.20
2014,08,16,01,27,18.20
2014,08,16,01,28,18.20
2014,08,16,01,29,18.20
2014,08,16,01,30,18.20
2014,08,16,01,31,18.20
2014,08,16,01,32,18.20
2014,08,16,01,33,18.20
2014,08,16,01,34,18.20
2014,08,16,01,35,18.20
2014,08,16,01,36,18.20
2014,08,16,01,37,18.20
2014,08,16,01,38,18.20
2014,08,16,01,39,18.20
2014,08,16,01,40,18.20
2014,08,16,01,41,18.20
2014,08,16,01,42,18.20
2014,08,16,01,43,18.20
2014,08,16,01,44,18.20
2014,08,16,01,45,18.20
2014,08,16,01,46,18.20
2014,08,16,01,47,18.20
2014,08,16,01,48,18.20
2014,08,16,01,49,18.20
2014,08,16,01,50,18.20
2014,08,16,01,51,18.20
2014,08,16,01,52,18.20
2014,08,16,01,53,18.20
2014,08,16,01,54,18.20
2014,08,16,01,55,18.20
2014,08,16,01,56,18.20
2014,08,16,01,57,18.20
2014,08,16,01,58,18.20
2014,08,16,01,59,18.20
2014,08,16,02,00,18.20
2014,08,16,02,01,18.20
2014,08,16,02,02,18.20
2014,08,16,02,03,18.20
2014,08,16,02,04,18.20
2014,08,16,02,05,18.20
2014,08,16,02,06,18.20
2014,08,16,02,07,18.20
2014,08,16,02,08,18.20
2014,08,16,02,09,18.20
2014,08,16,02,10,18.10
2014,08,16,02,11,18.20
2014,08,16,02,12,18.20
2014,08,16,02,13,18.20
2014,08,16,02,14,18.20
2014,08,16,02,15,18.20
2014,08,16,02,16,18.20
2014,08,16,02,17,18.20
2014,08,16,02,18,18.20
2014,08,16,02,19,18.20
2014,08,16,02,20,18.20
2014,08,16,02,21,18.20
2014,08,16,02,22,18.20
2014,08,16,02,23,18.20
2014,08,16,02,24,18.20
2014,08,16,02,25,18.20
2014,08,16,02,26,18.20
2014,08,16,02,27,18.20
2014,08,16,02,28,18.20
2014,08,16,02,29,18.20
2014,08,16,02,30,18.20
2014,08,16,02,31,18.20
2014,08,16,02,32,18.20
2014,08,16,02,33,18.20
2014,08,16,02,34,18.20
2014,08,16,02,35,18.20
2014,08,16,02,36,18.20
2014,08,16,02,37,18.20
2014,08,16,02,38,18.20
2014,08,16,02,39,18.20
2014,08,16,02,40,18.20
2014,08,16,02,41,18.20
2014,08,16,02,42,18.20
2014,08,16,02,43,18.20
2014,08,16,02,44,18.20
2014,08,16,02,45,18.20
2014,08,16,02,46,18.20
2014,08,16,02,47,18.20
2014,08,16,02,48,18.20
2014,08,16,02,49,18.20
2014,08,16,02,50,18.20
2014,08,16,02,51,18.20
2014,08,16,02,52,18.20
2014,08,16,02,53,18.20
2014,08,16,02,54,18.20
2014,08,16,02,55,18.20
2014,08,16,02,56,18.20
2014,08,16,02,57,18.20
2014,08,16,02,58,18.20
2014,08,16,02,59,18.20
2014,08,16,03,00,18.20
2014,08,16,03,01,18.20
2014,08,16,03,02,18.20
2014,08,16,03,03,18.20
2014,08,16,03,04,18.20
2014,08,16,03,05,18.20
2014,08,16,03,06,18.20
2014,08,16,03,07,18.20
2014,08,16,03,08,18.20
2014,08,16,03,09,18.20
2014,08,16,03,10,18.20
2014,08,16,03,11,18.20
2014,08,16,03,12,18.20
2014,08,16,03,13,18.20
2014,08,16,03,14,18.20
2014,08,16,03,15,18.20
2014,08,16,03,16,18.20
2014,08,16,03,17,18.20
2014,08,16,03,18,18.20
2014,08,16,03,19,18.20
2014,08,16,03,20,18.20
2014,08,16,03,21,18.20
2014,08,16,03,22,18.20
2014,08,16,03,23,18.20
2014,08,16,03,24,18.20
2014,08,16,03,25,18.20
2014,08,16,03,26,18.20
2014,08,16,03,27,18.10
2014,08,16,03,28,18.10
2014,08,16,03,29,18.10
2014,08,16,03,30,18.10
2014,08,16,03,31,18.10
2014,08,16,03,32,18.10
2014,08,16,03,33,18.10
2014,08,16,03,34,18.10
2014,08,16,03,35,18.10
2014,08,16,03,36,18.00
2014,08,16,03,37,18.00
2014,08,16,03,38,18.00
2014,08,16,03,39,18.00
2014,08,16,03,40,18.00
2014,08,16,03,41,18.00
2014,08,16,03,42,18.00
2014,08,16,03,43,18.00
2014,08,16,03,44,18.00
2014,08,16,03,45,18.00
2014,08,16,03,46,18.00
2014,08,16,03,47,18.00
2014,08,16,03,48,18.00
2014,08,16,03,49,18.00
2014,08,16,03,50,18.00
2014,08,16,03,51,18.00
2014,08,16,03,52,18.00
2014,08,16,03,53,18.00
2014,08,16,03,54,18.00
2014,08,16,03,55,18.00
2014,08,16,03,56,18.00
2014,08,16,03,57,18.00
2014,08,16,03,58,18.00
2014,08,16,03,59,18.00
2014,08,16,04,00,18.00
2014,08,16,04,01,18.00
2014,08,16,04,02,18.00
2014,08,16,04,03,18.00
2014,08,16,04,04,18.00
2014,08,16,04,05,18.00
2014,08,16,04,06,18.00
2014,08,16,04,07,18.00
2014,08,16,04,08,18.00
2014,08,16,04,09,18.00
2014,08,16,04,10,18.00
2014,08,16,04,11,18.00
2014,08,16,04,12,18.00
2014,08,16,04,13,18.00
2014,08,16,04,14,18.00
2014,08,16,04,15,18.00
2014,08,16,04,16,17.90
2014,08,16,04,17,17.90
2014,08,16,04,18,17.90
2014,08,16,04,19,17.90
2014,08,16,04,20,17.90
2014,08,16,04,21,17.90
2014,08,16,04,22,17.80
2014,08,16,04,23,17.80
2014,08,16,04,24,17.80
2014,08,16,04,25,17.80
2014,08,16,04,26,17.80
2014,08,16,04,27,17.80
2014,08,16,04,28,17.80
2014,08,16,04,29,17.80
2014,08,16,04,30,17.80
2014,08,16,04,31,17.80
2014,08,16,04,32,17.80
2014,08,16,04,33,17.80
2014,08,16,04,34,17.80
2014,08,16,04,35,17.80
2014,08,16,04,36,17.80
2014,08,16,04,37,17.80
2014,08,16,04,38,17.80
2014,08,16,04,39,17.80
2014,08,16,04,40,17.80
2014,08,16,04,41,17.80
2014,08,16,04,42,17.80
2014,08,16,04,43,17.80
2014,08,16,04,44,17.80
2014,08,16,04,45,17.80
2014,08,16,04,46,17.80
2014,08,16,04,47,17.80
2014,08,16,04,48,17.80
2014,08,16,04,49,17.80
2014,08,16,04,50,17.80
2014,08,16,04,51,17.80
2014,08,16,04,52,17.80
2014,08,16,04,53,17.80
2014,08,16,04,54,17.80
2014,08,16,04,55,17.80
2014,08,16,04,56,17.80
2014,08,16,04,57,17.80
2014,08,16,04,58,17.80
2014,08,16,04,59,17.80
2014,08,16,05,00,17.80
2014,08,16,05,01,17.80
2014,08,16,05,02,17.90
2014,08,16,05,03,17.80
2014,08,16,05,04,17.80
2014,08,16,05,05,17.80
2014,08,16,05,06,17.90
2014,08,16,05,07,17.80
2014,08,16,05,08,17.90
2014,08,16,05,09,17.90
2014,08,16,05,10,17.90
2014,08,16,05,11,17.90
2014,08,16,05,12,17.90
2014,08,16,05,13,17.90
2014,08,16,05,14,17.90
2014,08,16,05,15,18.00
2014,08,16,05,16,18.00
2014,08,16,05,17,18.00
2014,08,16,05,18,18.00
2014,08,16,05,19,18.00
2014,08,16,05,20,18.00
2014,08,16,05,21,18.00
2014,08,16,05,22,18.00
2014,08,16,05,23,17.90
2014,08,16,05,24,17.90
2014,08,16,05,25,17.90
2014,08,16,05,26,17.90
2014,08,16,05,27,17.90
2014,08,16,05,28,17.90
2014,08,16,05,29,17.90
2014,08,16,05,30,17.90
2014,08,16,05,31,17.90
2014,08,16,05,32,17.90
2014,08,16,05,33,17.90
2014,08,16,05,34,18.00
2014,08,16,05,35,18.00
2014,08,16,05,36,18.00
2014,08,16,05,37,17.90
2014,08,16,05,38,17.90
2014,08,16,05,39,17.90
2014,08,16,05,40,17.90
2014,08,16,05,41,17.90
2014,08,16,05,42,17.90
2014,08,16,05,43,17.90
2014,08,16,05,44,17.90
2014,08,16,05,45,17.90
2014,08,16,05,46,17.90
2014,08,16,05,47,17.90
2014,08,16,05,48,17.90
2014,08,16,05,49,17.90
2014,08,16,05,50,17.90
2014,08,16,05,51,17.90
2014,08,16,05,52,17.90
2014,08,16,05,53,17.90
2014,08,16,05,54,17.90
2014,08,16,05,55,17.80
2014,08,16,05,56,17.80
2014,08,16,05,57,17.90
2014,08,16,05,58,17.80
2014,08,16,05,59,17.90
2014,08,16,06,00,17.90
2014,08,16,06,01,17.90
2014,08,16,06,02,17.90
2014,08,16,06,03,17.90
2014,08,16,06,04,17.90
2014,08,16,06,05,17.90
2014,08,16,06,06,17.90
2014,08,16,06,07,17.90
2014,08,16,06,08,17.90
2014,08,16,06,09,17.90
2014,08,16,06,10,17.90
2014,08,16,06,11,17.90
2014,08,16,06,12,17.80
2014,08,16,06,13,17.80
2014,08,16,06,14,17.80
2014,08,16,06,15,17.80
2014,08,16,06,16,17.80
2014,08,16,06,17,17.80
2014,08,16,06,18,17.80
2014,08,16,06,19,17.80
2014,08,16,06,20,17.80
2014,08,16,06,21,17.80
2014,08,16,06,22,17.80
2014,08,16,06,23,17.80
2014,08,16,06,24,17.80
2014,08,16,06,25,17.80
2014,08,16,06,26,17.80
2014,08,16,06,27,17.80
2014,08,16,06,28,17.80
2014,08,16,06,29,17.80
2014,08,16,06,30,17.80
2014,08,16,06,31,17.80
2014,08,16,06,32,17.80
2014,08,16,06,33,17.80
2014,08,16,06,34,17.80
2014,08,16,06,35,17.80
2014,08,16,06,36,17.80
2014,08,16,06,37,17.80
2014,08,16,06,38,17.80
2014,08,16,06,39,17.90
2014,08,16,06,40,17.90
2014,08,16,06,41,17.80
2014,08,16,06,42,17.80
2014,08,16,06,43,17.90
2014,08,16,06,44,17.80
2014,08,16,06,45,17.80
2014,08,16,06,46,17.90
2014,08,16,06,47,17.90
2014,08,16,06,48,17.90
2014,08,16,06,49,17.90
2014,08,16,06,50,17.90
2014,08,16,06,51,17.90
2014,08,16,06,52,17.90
2014,08,16,06,53,17.90
2014,08,16,06,54,17.80
2014,08,16,06,55,17.80
2014,08,16,06,56,17.90
2014,08,16,06,57,17.80
2014,08,16,06,58,17.90
2014,08,16,06,59,17.90
2014,08,16,07,00,17.90
2014,08,16,07,01,17.90
2014,08,16,07,02,17.90
2014,08,16,07,03,17.90
2014,08,16,07,04,17.80
2014,08,16,07,05,17.80
2014,08,16,07,06,17.80
2014,08,16,07,07,17.80
2014,08,16,07,08,17.80
2014,08,16,07,09,17.80
2014,08,16,07,10,17.80
2014,08,16,07,11,17.80
2014,08,16,07,12,17.80
2014,08,16,07,13,17.80
2014,08,16,07,14,17.80
2014,08,16,07,15,17.80
2014,08,16,07,16,17.80
2014,08,16,07,17,17.80
2014,08,16,07,18,17.80
2014,08,16,07,19,17.80
2014,08,16,07,20,17.80
2014,08,16,07,21,17.90
2014,08,16,07,22,17.80
2014,08,16,07,23,17.80
2014,08,16,07,24,17.80
2014,08,16,07,25,17.80
2014,08,16,07,26,17.80
2014,08,16,07,27,17.80
2014,08,16,07,28,17.80
2014,08,16,07,29,17.80
2014,08,16,07,30,17.80
2014,08,16,07,31,17.80
2014,08,16,07,32,17.80
2014,08,16,07,33,17.80
2014,08,16,07,34,17.80
2014,08,16,07,35,17.80
2014,08,16,07,36,17.80
2014,08,16,07,37,17.80
2014,08,16,07,38,17.80
2014,08,16,07,39,17.80
2014,08,16,07,40,17.70
2014,08,16,07,41,17.70
2014,08,16,07,42,17.70
2014,08,16,07,43,17.70
2014,08,16,07,44,17.70
2014,08,16,07,45,17.80
2014,08,16,07,46,17.80
2014,08,16,07,47,17.80
2014,08,16,07,48,17.80
2014,08,16,07,49,17.80
2014,08,16,07,50,17.80
2014,08,16,07,51,17.90
2014,08,16,07,52,17.90
2014,08,16,07,53,18.00
2014,08,16,07,54,18.00
2014,08,16,07,55,18.10
2014,08,16,07,56,18.10
2014,08,16,07,57,18.20
2014,08,16,07,58,18.20
2014,08,16,07,59,18.20
2014,08,16,08,00,18.30
2014,08,16,08,01,18.30
2014,08,16,08,02,18.30
2014,08,16,08,03,18.40
2014,08,16,08,04,18.40
2014,08,16,08,05,18.40
2014,08,16,08,06,18.50
2014,08,16,08,07,18.50
2014,08,16,08,08,18.50
2014,08,16,08,09,18.60
2014,08,16,08,10,18.60
2014,08,16,08,11,18.60
2014,08,16,08,12,18.60
2014,08,16,08,13,18.60
2014,08,16,08,14,18.70
2014,08,16,08,15,18.70
2014,08,16,08,16,18.70
2014,08,16,08,17,18.70
2014,08,16,08,18,18.70
2014,08,16,08,19,18.70
2014,08,16,08,20,18.80
2014,08,16,08,21,18.70
2014,08,16,08,22,18.70
2014,08,16,08,23,18.80
2014,08,16,08,24,18.80
2014,08,16,08,25,18.80
2014,08,16,08,26,18.80
2014,08,16,08,27,18.80
2014,08,16,08,28,18.80
2014,08,16,08,29,18.80
2014,08,16,08,30,18.80
2014,08,16,08,31,18.80
2014,08,16,08,32,18.80
2014,08,16,08,33,18.80
2014,08,16,08,34,18.80
2014,08,16,08,35,18.80
2014,08,16,08,36,18.80
2014,08,16,08,37,18.80
2014,08,16,08,38,18.90
2014,08,16,08,39,18.90
2014,08,16,08,40,18.90
2014,08,16,08,41,18.90
2014,08,16,08,42,18.90
2014,08,16,08,43,18.90
2014,08,16,08,44,18.90
2014,08,16,08,45,19.00
2014,08,16,08,46,19.00
2014,08,16,08,47,19.00
2014,08,16,08,48,19.10
2014,08,16,08,49,19.10
2014,08,16,08,50,19.10
2014,08,16,08,51,19.20
2014,08,16,08,52,19.20
2014,08,16,08,53,19.30
2014,08,16,08,54,19.30
2014,08,16,08,55,19.40
2014,08,16,08,56,19.40
2014,08,16,08,57,19.50
2014,08,16,08,58,19.60
2014,08,16,08,59,19.70
2014,08,16,09,00,19.70
2014,08,16,09,01,19.80
2014,08,16,09,02,19.80
2014,08,16,09,03,19.90
2014,08,16,09,04,19.90
2014,08,16,09,05,20.00
2014,08,16,09,06,20.00
2014,08,16,09,07,20.00
2014,08,16,09,08,20.10
2014,08,16,09,09,20.10
2014,08,16,09,10,20.10
2014,08,16,09,11,20.10
2014,08,16,09,12,20.00
2014,08,16,09,13,20.00
2014,08,16,09,14,20.00
2014,08,16,09,15,20.00
2014,08,16,09,16,20.10
2014,08,16,09,17,20.10
2014,08,16,09,18,20.10
2014,08,16,09,19,20.20
2014,08,16,09,20,20.20
2014,08,16,09,21,20.30
2014,08,16,09,22,20.30
2014,08,16,09,23,20.40
2014,08,16,09,24,20.50
2014,08,16,09,25,20.50
2014,08,16,09,26,20.60
2014,08,16,09,27,20.70
2014,08,16,09,28,20.70
2014,08,16,09,29,20.80
2014,08,16,09,30,20.80
2014,08,16,09,31,20.80
2014,08,16,09,32,20.80
2014,08,16,09,33,20.80
2014,08,16,09,34,20.80
2014,08,16,09,35,20.80
2014,08,16,09,36,20.90
2014,08,16,09,37,20.90
2014,08,16,09,38,20.90
2014,08,16,09,39,21.00
2014,08,16,09,40,21.00
2014,08,16,09,41,21.00
2014,08,16,09,42,21.00
2014,08,16,09,43,21.00
2014,08,16,09,44,21.10
2014,08,16,09,45,21.10
2014,08,16,09,46,21.20
2014,08,16,09,47,21.20
2014,08,16,09,48,21.20
2014,08,16,09,49,21.20
2014,08,16,09,50,21.20
2014,08,16,09,51,21.20
2014,08,16,09,52,21.20
2014,08,16,09,53,21.20
2014,08,16,09,54,21.20
2014,08,16,09,55,21.20
2014,08,16,09,56,21.20
2014,08,16,09,57,21.30
2014,08,16,09,58,21.30
2014,08,16,09,59,21.30
2014,08,16,10,00,21.30
2014,08,16,10,01,21.30
2014,08,16,10,02,21.30
2014,08,16,10,03,21.30
2014,08,16,10,04,21.30
2014,08,16,10,05,21.30
2014,08,16,10,06,21.30
2014,08,16,10,07,21.30
2014,08,16,10,08,21.30
2014,08,16,10,09,21.30
2014,08,16,10,10,21.30
2014,08,16,10,11,21.30
2014,08,16,10,12,21.40
2014,08,16,10,13,21.40
2014,08,16,10,14,21.30
2014,08,16,10,15,21.30
2014,08,16,10,16,21.40
2014,08,16,10,17,21.40
2014,08,16,10,18,21.40
2014,08,16,10,19,21.40
2014,08,16,10,20,21.40
2014,08,16,10,21,21.50
2014,08,16,10,22,21.50
2014,08,16,10,23,21.50
2014,08,16,10,24,21.50
2014,08,16,10,25,21.50
2014,08,16,10,26,21.40
2014,08,16,10,27,21.40
2014,08,16,10,28,21.40
2014,08,16,10,29,21.40
2014,08,16,10,30,21.50
2014,08,16,10,31,21.50
2014,08,16,10,32,21.50
2014,08,16,10,33,21.60
2014,08,16,10,34,21.60
2014,08,16,10,35,21.60
2014,08,16,10,36,21.60
2014,08,16,10,37,21.70
2014,08,16,10,38,21.70
2014,08,16,10,39,21.70
2014,08,16,10,40,21.70
2014,08,16,10,41,21.70
2014,08,16,10,42,21.70
2014,08,16,10,43,21.70
2014,08,16,10,44,21.70
2014,08,16,10,45,21.70
2014,08,16,10,46,21.70
2014,08,16,10,47,21.70
2014,08,16,10,48,21.80
2014,08,16,10,49,21.80
2014,08,16,10,50,21.80
2014,08,16,10,51,21.80
2014,08,16,10,52,21.90
2014,08,16,10,53,21.90
2014,08,16,10,54,21.90
2014,08,16,10,55,22.00
2014,08,16,10,56,22.00
2014,08,16,10,57,22.00
2014,08,16,10,58,22.10
2014,08,16,10,59,22.10
2014,08,16,11,00,22.00
2014,08,16,11,01,22.00
2014,08,16,11,02,21.90
2014,08,16,11,03,21.90
2014,08,16,11,04,21.90
2014,08,16,11,05,22.00
2014,08,16,11,06,22.00
2014,08,16,11,07,22.00
2014,08,16,11,08,22.10
2014,08,16,11,09,22.10
2014,08,16,11,10,22.10
2014,08,16,11,11,22.10
2014,08,16,11,12,22.10
2014,08,16,11,13,22.20
2014,08,16,11,14,22.20
2014,08,16,11,15,22.30
2014,08,16,11,16,22.40
2014,08,16,11,17,22.50
2014,08,16,11,18,22.50
2014,08,16,11,19,22.60
2014,08,16,11,20,22.60
2014,08,16,11,21,22.60
2014,08,16,11,22,22.60
2014,08,16,11,23,22.60
2014,08,16,11,24,22.60
2014,08,16,11,25,22.70
2014,08,16,11,26,22.70
2014,08,16,11,27,22.70
2014,08,16,11,28,22.80
2014,08,16,11,29,22.90
2014,08,16,11,30,23.00
2014,08,16,11,31,23.00
2014,08,16,11,32,23.10
2014,08,16,11,33,23.10
2014,08,16,11,34,23.10
2014,08,16,11,35,23.10
2014,08,16,11,36,23.10
2014,08,16,11,37,23.10
2014,08,16,11,38,23.20
2014,08,16,11,39,23.30
2014,08,16,11,40,23.30
2014,08,16,11,41,23.30
2014,08,16,11,42,23.30
2014,08,16,11,43,23.40
2014,08,16,11,44,23.50
2014,08,16,11,45,23.50
2014,08,16,11,46,23.60
2014,08,16,11,47,23.60
2014,08,16,11,48,23.60
2014,08,16,11,49,23.60
2014,08,16,11,50,23.60
2014,08,16,11,51,23.60
2014,08,16,11,52,23.60
2014,08,16,11,53,23.60
2014,08,16,11,54,23.60
2014,08,16,11,55,23.60
2014,08,16,11,56,23.60
2014,08,16,11,57,23.60
2014,08,16,11,58,23.50
2014,08,16,11,59,23.60
2014,08,16,12,00,23.60
2014,08,16,12,01,23.60
2014,08,16,12,02,23.60
2014,08,16,12,03,23.60
2014,08,16,12,04,23.60
2014,08,16,12,05,23.60
2014,08,16,12,06,23.70
2014,08,16,12,07,23.70
2014,08,16,12,08,23.70
2014,08,16,12,09,23.80
2014,08,16,12,10,23.80
2014,08,16,12,11,23.80
2014,08,16,12,12,23.80
2014,08,16,12,13,23.90
2014,08,16,12,14,23.90
2014,08,16,12,15,23.90
2014,08,16,12,16,23.90
2014,08,16,12,17,23.80
2014,08,16,12,18,23.80
2014,08,16,12,19,23.80
2014,08,16,12,20,23.70
2014,08,16,12,21,23.70
2014,08,16,12,22,23.60
2014,08,16,12,23,23.50
2014,08,16,12,24,23.50
2014,08,16,12,25,23.40
2014,08,16,12,26,23.40
2014,08,16,12,27,23.50
2014,08,16,12,28,23.60
2014,08,16,12,29,23.70
2014,08,16,12,30,23.80
2014,08,16,12,31,23.80
2014,08,16,12,32,23.90
2014,08,16,12,33,24.00
2014,08,16,12,34,24.00
2014,08,16,12,35,23.90
2014,08,16,12,36,23.90
2014,08,16,12,37,23.90
2014,08,16,12,38,23.90
2014,08,16,12,39,23.80
2014,08,16,12,40,23.70
2014,08,16,12,41,23.70
2014,08,16,12,42,23.80
2014,08,16,12,43,23.80
2014,08,16,12,44,23.80
2014,08,16,12,45,23.70
2014,08,16,12,46,23.60
2014,08,16,12,47,23.50
2014,08,16,12,48,23.50
2014,08,16,12,49,23.50
2014,08,16,12,50,23.60
2014,08,16,12,51,23.70
2014,08,16,12,52,23.70
2014,08,16,12,53,23.80
2014,08,16,12,54,23.80
2014,08,16,12,55,23.80
2014,08,16,12,56,23.70
2014,08,16,12,57,23.70
2014,08,16,12,58,23.70
2014,08,16,12,59,23.70
2014,08,16,13,00,23.70
2014,08,16,13,01,23.60
2014,08,16,13,02,23.60
2014,08,16,13,03,23.60
2014,08,16,13,04,23.60
2014,08,16,13,05,23.70
2014,08,16,13,06,23.80
2014,08,16,13,07,23.80
2014,08,16,13,08,23.70
2014,08,16,13,09,23.70
2014,08,16,13,10,23.70
2014,08,16,13,11,23.80
2014,08,16,13,12,23.80
2014,08,16,13,13,23.90
2014,08,16,13,14,24.00
2014,08,16,13,15,24.10
2014,08,16,13,16,24.20
2014,08,16,13,17,24.30
2014,08,16,13,18,24.30
2014,08,16,13,19,24.30
2014,08,16,13,20,24.40
2014,08,16,13,21,24.40
2014,08,16,13,22,24.40
2014,08,16,13,23,24.30
2014,08,16,13,24,24.30
2014,08,16,13,25,24.30
2014,08,16,13,26,24.30
2014,08,16,13,27,24.30
2014,08,16,13,28,24.30
2014,08,16,13,29,24.30
2014,08,16,13,30,24.30
2014,08,16,13,31,24.30
2014,08,16,13,32,24.40
2014,08,16,13,33,24.40
2014,08,16,13,34,24.50
2014,08,16,13,35,24.60
2014,08,16,13,36,24.60
2014,08,16,13,37,24.50
2014,08,16,13,38,24.50
2014,08,16,13,39,24.40
2014,08,16,13,40,24.40
2014,08,16,13,41,24.40
2014,08,16,13,42,24.40
2014,08,16,13,43,24.50
2014,08,16,13,44,24.60
2014,08,16,13,45,24.70
2014,08,16,13,46,24.70
2014,08,16,13,47,24.70
2014,08,16,13,48,24.70
2014,08,16,13,49,24.60
2014,08,16,13,50,24.60
2014,08,16,13,51,24.70
2014,08,16,13,52,24.70
2014,08,16,13,53,24.70
2014,08,16,13,54,24.70
2014,08,16,13,55,24.70
2014,08,16,13,56,24.70
2014,08,16,13,57,24.70
2014,08,16,13,58,24.70
2014,08,16,13,59,24.70
2014,08,16,14,00,24.60
2014,08,16,14,01,24.50
2014,08,16,14,02,24.40
2014,08,16,14,03,24.40
2014,08,16,14,04,24.40
2014,08,16,14,05,24.50
2014,08,16,14,06,24.50
2014,08,16,14,07,24.50
2014,08,16,14,08,24.50
2014,08,16,14,09,24.40
2014,08,16,14,10,24.30
2014,08,16,14,11,24.40
2014,08,16,14,12,24.50
2014,08,16,14,13,24.50
2014,08,16,14,14,24.60
2014,08,16,14,15,24.60
2014,08,16,14,16,24.60
2014,08,16,14,17,24.50
2014,08,16,14,18,24.50
2014,08,16,14,19,24.50
2014,08,16,14,20,24.50
2014,08,16,14,21,24.50
2014,08,16,14,22,24.40
2014,08,16,14,23,24.30
2014,08,16,14,24,24.20
2014,08,16,14,25,24.00
2014,08,16,14,26,23.90
2014,08,16,14,27,23.80
2014,08,16,14,28,23.80
2014,08,16,14,29,23.80
2014,08,16,14,30,23.80
2014,08,16,14,31,23.70
2014,08,16,14,32,23.70
2014,08,16,14,33,23.70
2014,08,16,14,34,23.80
2014,08,16,14,35,23.90
2014,08,16,14,36,23.90
2014,08,16,14,37,24.00
2014,08,16,14,38,24.00
2014,08,16,14,39,24.10
2014,08,16,14,40,24.10
2014,08,16,14,41,24.10
2014,08,16,14,42,24.10
2014,08,16,14,43,24.10
2014,08,16,14,44,24.10
2014,08,16,14,45,24.10
2014,08,16,14,46,24.00
2014,08,16,14,47,24.00
2014,08,16,14,48,24.10
2014,08,16,14,49,24.10
2014,08,16,14,50,24.10
2014,08,16,14,51,24.10
2014,08,16,14,52,24.10
2014,08,16,14,53,24.10
2014,08,16,14,54,24.10
2014,08,16,14,55,24.10
2014,08,16,14,56,24.20
2014,08,16,14,57,24.30
2014,08,16,14,58,24.40
2014,08,16,14,59,24.40
2014,08,16,15,00,24.30
2014,08,16,15,01,24.20
2014,08,16,15,02,24.20
2014,08,16,15,03,24.20
2014,08,16,15,04,24.00
2014,08,16,15,05,23.90
2014,08,16,15,06,23.80
2014,08,16,15,07,23.80
2014,08,16,15,08,23.90
2014,08,16,15,09,24.00
2014,08,16,15,10,24.00
2014,08,16,15,11,24.10
2014,08,16,15,12,24.10
2014,08,16,15,13,24.10
2014,08,16,15,14,24.10
2014,08,16,15,15,24.10
2014,08,16,15,16,24.10
2014,08,16,15,17,24.10
2014,08,16,15,18,24.30
2014,08,16,15,19,24.30
2014,08,16,15,20,24.30
2014,08,16,15,21,24.30
2014,08,16,15,22,24.30
2014,08,16,15,23,24.30
2014,08,16,15,24,24.40
2014,08,16,15,25,24.40
2014,08,16,15,26,24.50
2014,08,16,15,27,24.50
2014,08,16,15,28,24.50
2014,08,16,15,29,24.40
2014,08,16,15,30,24.40
2014,08,16,15,31,24.30
2014,08,16,15,32,24.20
2014,08,16,15,33,24.20
2014,08,16,15,34,24.20
2014,08,16,15,35,24.10
2014,08,16,15,36,24.10
2014,08,16,15,37,24.00
2014,08,16,15,38,23.80
2014,08,16,15,39,23.80
2014,08,16,15,40,23.80
2014,08,16,15,41,23.80
2014,08,16,15,42,23.80
2014,08,16,15,43,23.80
2014,08,16,15,44,23.80
2014,08,16,15,45,23.80
2014,08,16,15,46,23.80
2014,08,16,15,47,23.90
2014,08,16,15,48,23.90
2014,08,16,15,49,23.80
2014,08,16,15,50,23.60
2014,08,16,15,51,23.60
2014,08,16,15,52,23.70
2014,08,16,15,53,23.80
2014,08,16,15,54,24.00
2014,08,16,15,55,24.00
2014,08,16,15,56,24.10
2014,08,16,15,57,24.20
2014,08,16,15,58,24.20
2014,08,16,15,59,24.10
2014,08,16,16,00,24.00
2014,08,16,16,01,24.00
2014,08,16,16,02,24.00
2014,08,16,16,03,23.90
2014,08,16,16,04,23.90
2014,08,16,16,05,23.90
2014,08,16,16,06,23.80
2014,08,16,16,07,23.80
2014,08,16,16,08,23.70
2014,08,16,16,09,23.70
2014,08,16,16,10,23.60
2014,08,16,16,11,23.60
2014,08,16,16,12,23.50
2014,08,16,16,13,23.50
2014,08,16,16,14,23.50
2014,08,16,16,15,23.60
2014,08,16,16,16,23.70
2014,08,16,16,17,23.90
2014,08,16,16,18,24.00
2014,08,16,16,19,24.10
2014,08,16,16,20,24.30
2014,08,16,16,21,24.30
2014,08,16,16,22,24.40
2014,08,16,16,23,24.40
2014,08,16,16,24,24.50
2014,08,16,16,25,24.50
2014,08,16,16,26,24.40
2014,08,16,16,27,24.40
2014,08,16,16,28,24.40
2014,08,16,16,29,24.50
2014,08,16,16,30,24.60
2014,08,16,16,31,24.60
2014,08,16,16,32,24.60
2014,08,16,16,33,24.60
2014,08,16,16,34,24.50
2014,08,16,16,35,24.50
2014,08,16,16,36,24.50
2014,08,16,16,37,24.40
2014,08,16,16,38,24.30
2014,08,16,16,39,24.30
2014,08,16,16,40,24.30
2014,08,16,16,41,24.20
2014,08,16,16,42,24.20
2014,08,16,16,43,24.20
2014,08,16,16,44,24.20
2014,08,16,16,45,24.20
2014,08,16,16,46,24.20
2014,08,16,16,47,24.20
2014,08,16,16,48,24.20
2014,08,16,16,49,24.30
2014,08,16,16,50,24.20
2014,08,16,16,51,24.20
2014,08,16,16,52,24.20
2014,08,16,16,53,24.20
2014,08,16,16,54,24.10
2014,08,16,16,55,24.10
2014,08,16,16,56,24.10
2014,08,16,16,57,24.00
2014,08,16,16,58,23.90
2014,08,16,16,59,23.80
2014,08,16,17,00,23.60
2014,08,16,17,01,23.50
2014,08,16,17,02,23.40
2014,08,16,17,03,23.30
2014,08,16,17,04,23.30
2014,08,16,17,05,23.30
2014,08,16,17,06,23.30
2014,08,16,17,07,23.40
2014,08,16,17,08,23.40
2014,08,16,17,09,23.50
2014,08,16,17,10,23.60
2014,08,16,17,11,23.60
2014,08,16,17,12,23.60
2014,08,16,17,13,23.60
2014,08,16,17,14,23.60
2014,08,16,17,15,23.60
2014,08,16,17,16,23.60
2014,08,16,17,17,23.60
2014,08,16,17,18,23.50
2014,08,16,17,19,23.50